Tracking 19846 objects as of 18-Sep-2019
HD Live streaming from Space Station
objects crossing your sky now

WESTFORD NEEDLES

Track WESTFORD NEEDLES now!
10-day predictions
WESTFORD NEEDLES is classified as:


NORAD ID: 2375
Int'l Code: 1963-014W
Perigee: 1,628.0 km
Apogee: 5,499.0 km
Inclination: 86.2 °
Period: 164.2 minutes
Semi major axis: 9934 km
RCS: 0.1605 m2 (medium)
Launch date: May 9, 1963
Source: United States (US)
Launch site: AIR FORCE WESTERN TEST RANGE (AFWTR)
aabbcc
Your satellite tracking list
Your tracking list is empty




NASA's NSSDC Master Catalog

Two Line Element Set (TLE):
1  2375U 63014W   19261.43705187  .00000157  00000-0  86805-2 0  9997
2  2375  86.2172  48.6318 1948257  51.4550 324.5452  8.76760496719444
Source of the keplerian elements: AFSPC